Theta_e
308 309 310 315 328 325 324 320 322 323 323 322 320 325 325 326 329 328 334 336 336 337 339 337 334 334 331 327 324 322 321 321 321 320 320 319 318 319 320 320 320 320 320 320 320 319 319 319 318
309 310 313 319 330 332 325 318 320 322 321 324 324 326 326 327 333 335 336 336 337 338 338 337 335 333 328 326 322 322 321 321 320 319 318 318 318 319 319 319 318 318 318 319 319 318 318 317 317
309 308 318 326 329 331 325 317 318 318 321 321 324 325 326 329 334 335 335 336 337 338 338 337 334 331 328 326 322 322 321 320 319 318 317 317 318 317 317 317 317 317 317 318 318 319 317 317 316
310 312 314 324 329 325 322 318 316 319 322 322 321 325 329 330 334 334 335 336 337 338 337 334 331 329 326 325 322 322 320 319 317 317 317 316 316 316 317 317 317 317 317 318 317 316 316 315 315
309 312 320 323 325 321 317 316 313 320 321 319 322 323 329 332 332 335 335 336 337 337 337 333 329 327 326 324 322 321 319 317 316 317 316 315 316 317 317 317 317 317 317 316 316 317 315 315 314
312 312 320 324 324 317 314 314 311 315 320 318 322 323 329 331 334 334 335 336 337 336 335 332 327 326 325 323 322 320 317 315 315 315 313 313 314 314 315 316 315 316 316 315 316 315 315 315 314
312 313 319 320 321 319 319 312 313 314 316 319 321 322 328 331 332 333 333 336 336 335 333 330 327 325 325 322 320 317 315 313 313 311 306 308 308 309 310 313 315 315 315 315 315 314 314 314 313
311 312 314 316 318 319 313 311 311 313 315 318 322 321 324 331 330 331 332 335 335 334 331 329 328 326 325 321 318 314 309 308 307 305 305 306 308 309 310 312 312 313 314 315 314 314 312 311 311
308 311 314 315 314 317 311 311 312 310 315 319 322 321 327 331 329 330 331 332 333 331 329 328 327 325 324 321 316 310 307 307 305 305 305 308 311 311 312 310 310 310 311 311 310 311 312 312 312
310 311 312 312 312 313 311 310 313 313 314 316 323 326 327 328 330 330 330 329 330 330 328 327 326 324 323 319 315 312 308 309 307 305 308 310 311 311 310 310 310 311 311 311 312 313 313 313 313
310 310 310 309 309 308 309 309 309 312 314 316 318 323 328 328 330 331 330 330 331 330 328 326 325 323 322 318 314 310 309 308 306 305 308 309 310 311 311 312 312 313 312 313 314 315 315 315 314
308 309 308 308 308 308 309 309 310 310 314 310 314 321 327 329 331 329 329 331 331 329 328 325 324 322 321 318 313 309 309 308 308 306 306 311 311 311 311 312 312 313 313 314 315 315 315 313 312
308 308 307 307 307 308 307 309 310 309 310 308 315 321 326 329 330 329 328 329 329 328 328 325 323 322 320 317 312 309 310 309 307 306 306 310 311 311 311 312 312 313 313 314 315 315 314 313 313
307 308 308 308 308 307 308 309 308 310 310 310 307 315 323 327 328 329 327 326 329 328 327 325 323 321 319 317 313 310 310 309 307 307 308 308 311 311 311 312 312 312 313 314 315 314 313 313 314
307 307 308 308 308 308 308 309 308 309 309 309 309 308 314 324 326 328 327 327 328 328 327 325 323 321 319 317 314 309 309 308 307 307 306 309 310 311 311 312 312 312 312 314 315 315 314 314 313
307 307 308 308 308 308 308 309 310 310 310 309 310 310 309 311 323 325 327 327 328 328 327 325 322 321 319 317 313 309 309 309 308 307 307 308 310 310 311 312 312 311 313 314 315 314 314 314 313
308 309 308 308 306 308 309 309 310 309 307 309 309 310 310 308 308 316 323 326 328 328 327 325 323 321 319 317 313 309 309 309 307 307 308 308 310 309 311 311 311 311 313 314 315 314 313 314 313
310 307 306 307 306 305 307 308 309 305 305 307 308 308 307 307 308 307 312 322 326 327 327 325 324 322 319 317 313 309 309 308 307 307 308 307 310 309 311 311 310 311 314 314 315 314 314 315 315
309 309 309 309 304 305 306 307 308 308 308 307 307 308 307 307 307 305 305 312 323 325 326 325 324 322 319 315 312 309 309 308 307 307 305 308 309 310 309 311 311 312 314 314 315 315 315 315 314
306 307 308 306 303 304 305 306 307 307 307 307 307 308 308 308 308 307 304 306 316 322 325 325 324 322 319 316 313 310 310 308 308 306 305 307 309 310 309 310 311 312 313 314 314 314 315 314 313
307 307 308 307 304 304 304 306 308 308 307 307 307 308 309 309 309 308 307 305 311 318 322 324 323 321 318 317 311 310 308 307 307 307 307 307 308 310 310 310 311 311 313 315 315 315 315 316 314
309 307 306 305 306 309 305 310 311 310 310 309 308 308 308 309 308 308 308 305 310 316 320 322 323 320 319 316 312 310 311 309 308 307 307 307 308 309 310 310 310 311 312 314 314 314 314 315 316
308 307 305 306 307 308 308 307 310 311 310 312 312 310 310 311 311 309 307 306 308 315 319 321 321 319 318 315 314 312 312 311 309 308 307 307 307 309 310 310 310 310 312 313 314 314 314 314 315
306 305 305 305 307 311 310 309 311 312 311 311 313 313 314 313 310 308 307 305 307 314 319 320 320 318 316 315 315 314 313 310 308 308 307 307 307 308 309 309 310 310 312 313 314 314 314 315 315
307 307 313 313 312 315 310 310 311 313 312 312 313 314 312 311 308 307 306 304 305 314 318 319 318 317 314 315 314 314 313 310 309 308 307 307 307 308 309 309 310 310 311 312 313 313 313 314 315
308 310 314 312 314 310 306 313 313 311 311 312 312 312 310 306 305 304 303 304 305 315 318 317 317 316 313 313 313 313 312 311 309 309 307 306 307 307 309 309 311 310 310 311 312 313 313 314 314
308 311 310 311 303 313 313 312 311 311 310 309 308 308 309 310 307 305 301 304 307 314 317 316 316 315 312 313 312 312 312 311 310 309 307 306 306 306 309 309 311 310 311 311 312 313 313 313 313
307 309 312 315 317 317 315 314 315 313 312 311 310 308 308 308 307 303 301 306 311 313 315 314 315 314 312 312 312 311 311 312 312 309 307 306 305 305 309 309 311 310 311 310 312 313 313 313 312
310 310 310 312 312 316 314 312 312 314 311 308 308 306 308 309 305 302 305 311 313 314 314 313 314 312 311 311 311 311 311 311 311 309 308 306 304 305 308 309 310 310 310 310 311 312 312 312 311
309 308 310 315 316 312 311 311 305 307 307 306 306 302 303 305 303 303 310 312 313 314 312 312 313 311 310 310 310 310 310 310 310 308 307 305 304 305 308 309 310 310 310 310 311 311 311 311 311
Wind_Speed
11 7 4 3 5 4 6 4 4 5 4 1 2 3 4 3 1 3 6 5 16 20 20 18 15 15 13 7 6 7 7 8 8 8 8 7 8 8 7 7 7 7 6 6 6 7 7 8 8
10 3 1 1 6 8 6 5 10 5 4 2 3 3 4 2 3 6 12 7 18 20 19 17 17 16 11 7 7 7 7 8 8 8 7 7 8 8 7 7 8 7 7 7 8 8 8 9 9
6 2 3 4 6 10 5 5 1 3 3 3 2 1 0 3 3 13 5 16 19 19 17 17 17 14 10 5 7 8 8 8 7 7 7 7 8 8 8 8 9 8 8 8 8 8 9 10 10
2 4 2 6 12 9 7 4 5 3 4 6 4 3 2 2 5 8 14 18 20 18 16 18 14 11 6 6 8 8 7 7 7 6 7 8 7 8 8 8 8 8 8 9 9 9 10 11 10
1 3 6 8 15 9 8 6 4 3 3 3 4 2 2 3 3 9 17 18 20 19 17 18 15 9 6 9 9 8 7 6 6 7 8 8 8 8 7 7 8 8 8 9 9 10 11 11 11
4 3 6 14 16 8 7 8 4 7 7 1 4 3 3 3 8 12 15 18 19 18 18 16 14 10 8 9 9 8 7 6 6 6 7 6 7 7 7 7 7 8 9 10 11 12 12 12 11
6 6 13 14 12 9 10 6 10 8 9 8 1 4 3 6 9 14 16 18 18 18 17 15 13 10 10 10 9 8 6 6 5 5 4 4 4 5 6 7 7 7 9 10 11 13 13 11 10
3 4 11 10 12 13 4 5 4 9 8 3 2 4 3 10 13 16 17 17 17 17 16 15 13 12 12 11 9 7 5 4 3 3 3 3 4 5 6 8 7 8 9 11 11 13 14 12 12
2 7 14 17 12 9 5 7 5 1 5 4 5 1 3 15 17 18 18 16 17 16 16 15 13 12 13 11 10 8 6 4 3 3 3 3 3 4 5 5 7 9 10 11 13 15 14 15 15
7 11 17 7 10 7 4 6 5 5 9 7 6 5 7 16 18 17 17 16 20 19 18 15 14 13 14 11 10 8 6 4 3 3 3 3 3 3 5 6 6 9 9 12 13 15 17 14 12
6 16 12 8 10 6 4 4 3 7 9 12 14 12 12 16 18 19 20 21 22 20 18 17 15 14 15 12 10 8 6 5 4 3 3 3 3 3 3 4 5 6 10 10 12 13 13 13 13
10 11 11 3 4 5 6 2 4 11 7 2 6 8 14 16 17 22 21 22 22 22 19 18 16 15 15 12 11 9 7 6 4 4 4 3 3 3 4 4 5 7 8 10 12 12 13 14 15
11 13 8 12 6 7 2 10 8 9 12 2 2 7 13 15 20 22 21 20 20 21 21 19 18 16 16 14 12 10 8 7 5 4 4 3 3 3 4 4 5 6 8 10 11 12 12 14 15
2 10 15 8 8 8 8 12 6 10 10 14 10 10 11 15 19 19 21 22 24 23 23 20 19 17 17 15 14 11 10 8 7 6 5 5 4 4 3 4 5 6 7 8 11 11 13 15 18
5 9 10 12 12 7 7 16 20 19 13 12 12 16 13 15 18 25 26 26 26 26 23 23 21 20 19 17 15 12 11 10 7 6 6 5 4 4 3 4 5 6 6 7 9 11 16 15 17
6 6 12 6 12 7 12 24 16 14 18 22 22 18 15 19 21 23 22 24 25 25 27 25 23 23 21 18 17 13 13 11 8 7 6 6 5 4 4 3 5 6 6 7 10 11 17 14 17
10 12 13 12 12 7 17 17 15 14 13 16 16 19 18 17 18 25 25 25 25 27 27 27 26 25 24 20 18 15 14 11 10 8 7 7 6 5 4 3 5 7 5 6 9 11 15 14 15
13 9 12 11 7 11 13 21 16 6 8 13 15 16 14 15 21 25 26 26 26 26 27 26 27 25 25 21 19 15 14 12 11 9 8 9 6 6 5 4 6 7 5 7 9 11 13 14 15
18 20 17 11 7 10 17 22 22 18 20 18 18 16 16 17 14 17 23 26 26 26 28 29 29 27 26 23 20 15 15 13 12 11 11 10 8 7 7 5 6 6 5 6 9 10 9 6 3
21 20 21 10 5 9 10 18 18 19 18 20 21 21 20 18 14 14 19 22 28 29 30 30 31 30 29 25 23 14 17 13 12 13 13 12 10 8 8 7 6 6 5 5 6 8 4 2 2
26 27 21 14 3 6 8 17 21 18 20 21 20 21 20 20 19 17 17 24 24 29 32 32 32 32 31 27 23 18 15 13 12 14 13 14 12 11 9 8 6 7 5 4 4 4 5 3 3
26 20 18 13 8 11 3 12 20 10 17 20 20 19 20 21 19 18 17 22 27 30 30 33 33 33 33 31 29 27 23 19 15 17 14 14 14 12 10 10 8 8 5 3 3 3 3 3 5
19 10 14 18 16 15 17 8 14 10 20 24 18 18 20 21 21 21 20 26 29 29 32 33 34 34 34 37 33 29 23 18 17 16 17 15 15 14 12 11 10 9 7 5 3 3 4 3 5
9 9 6 4 8 9 24 17 18 20 18 19 17 19 19 18 16 16 20 22 25 27 29 30 33 34 36 37 37 32 26 22 20 19 19 16 15 16 14 13 11 8 8 6 4 5 6 6 7
21 19 6 6 6 16 5 15 24 12 9 14 14 14 13 11 12 14 16 15 24 30 32 32 34 34 35 35 34 34 29 26 25 25 22 20 17 16 17 14 12 9 10 8 5 5 6 7 7
27 23 8 11 9 12 6 13 8 15 17 16 21 16 8 7 9 9 13 14 22 29 34 33 35 34 36 37 37 35 32 29 24 27 25 22 19 18 19 15 12 11 10 9 7 5 7 8 8
22 21 25 4 2 3 10 14 12 13 14 12 16 13 15 15 11 9 9 15 22 27 32 34 35 33 35 36 34 34 32 29 27 26 24 22 19 19 20 17 14 13 10 9 8 7 8 8 8
19 24 15 8 9 8 10 12 12 6 14 13 13 12 13 14 10 7 9 12 19 23 25 26 29 31 33 33 33 33 32 33 30 27 25 23 21 22 21 18 15 13 11 11 10 10 10 9 10
16 17 20 18 10 10 7 7 5 15 5 3 4 6 10 12 10 8 8 13 17 21 23 23 27 28 30 31 31 32 33 32 31 28 25 24 23 22 21 19 17 14 12 11 10 10 11 11 12
23 23 24 13 18 11 4 4 3 6 7 6 4 2 3 6 9 9 9 13 17 19 21 23 25 27 30 30 29 30 30 30 30 26 25 25 24 24 23 20 17 15 13 13 12 12 11 12 13
Wind_Direction
318 326 326 252 239 243 242 221 264 255 232 165 116 210 234 10 237 329 136 140 150 154 157 157 161 153 148 139 141 128 110 98 93 86 80 72 66 63 58 54 50 46 37 24 9 358 349 343 337
314 318 203 261 248 233 233 220 232 263 332 158 157 172 199 152 83 110 142 152 154 155 156 159 161 151 145 138 141 121 106 99 90 80 71 65 62 60 56 51 45 38 30 23 12 0 351 346 342
303 335 234 236 243 236 255 192 307 280 259 237 215 273 224 105 117 151 132 149 155 155 156 157 163 148 144 138 136 117 109 99 87 77 71 67 63 60 55 46 40 34 25 16 6 360 351 342 339
286 201 153 237 235 244 238 175 320 282 196 238 266 207 152 46 136 156 150 151 155 155 158 162 165 142 143 148 129 119 111 101 89 81 74 73 62 59 56 49 37 26 22 22 14 3 1 1 352
17 258 224 239 245 253 240 269 277 258 214 217 215 184 143 137 145 146 154 156 159 159 158 160 156 180 163 141 129 126 117 106 97 90 82 73 66 63 55 43 31 22 16 14 10 360 358 352 347
220 277 226 234 235 242 253 236 251 240 224 198 221 202 145 122 151 154 160 160 162 161 158 161 174 180 167 149 141 135 127 116 113 96 85 77 65 59 56 45 27 25 23 19 15 5 358 351 343
251 238 240 253 254 255 247 191 226 244 233 224 262 225 117 163 161 157 162 161 165 163 162 162 161 169 177 166 162 151 138 129 118 106 89 101 76 65 60 63 36 27 20 18 17 9 7 3 350
256 248 243 236 238 253 208 193 204 220 218 108 208 227 179 166 164 163 163 163 166 166 167 168 165 162 159 159 175 170 161 150 140 117 100 97 83 76 61 51 30 28 24 27 18 13 8 4 7
271 234 241 238 220 230 175 225 180 334 197 181 192 275 67 149 154 159 164 162 168 172 172 174 171 171 166 159 168 175 180 162 126 108 105 81 81 75 60 59 45 35 38 28 21 16 16 23 10
227 237 241 248 239 247 216 237 210 199 199 200 201 165 130 154 162 166 175 172 178 179 178 179 179 176 171 166 163 164 173 153 144 136 123 102 78 73 77 62 56 43 40 28 24 21 26 25 22
199 241 244 243 230 243 234 230 234 233 219 215 205 187 163 168 176 184 191 189 190 186 183 182 183 181 177 175 172 173 175 166 156 148 131 121 95 60 86 70 52 36 31 25 23 27 29 27 27
239 243 238 255 218 197 235 241 234 234 234 345 194 163 169 181 187 193 196 199 198 194 193 187 187 184 183 180 179 178 177 173 159 163 150 135 103 78 84 74 54 36 29 28 32 38 43 46 42
237 245 241 243 254 241 232 239 241 241 246 210 125 173 188 192 196 200 201 205 201 200 197 194 189 190 186 185 183 179 182 174 168 160 154 131 108 103 98 89 68 46 37 39 45 53 53 48 45
296 254 250 240 235 236 235 246 211 233 253 240 228 219 203 206 200 197 203 204 203 202 199 195 194 192 191 191 191 184 184 180 170 160 159 145 124 120 112 89 78 54 44 46 49 61 63 59 55
263 262 252 237 229 238 224 253 237 242 231 245 232 234 224 214 203 207 205 206 203 202 197 197 195 193 194 194 193 187 187 182 174 165 165 155 136 125 116 104 88 65 53 51 62 69 72 67 57
227 233 247 226 197 220 197 256 247 233 226 239 243 239 227 225 217 217 209 210 207 201 198 196 196 197 194 193 192 187 188 184 178 168 167 165 145 131 129 119 101 86 64 69 73 83 80 64 61
213 242 231 260 200 202 203 260 254 236 219 232 239 240 239 237 227 226 216 210 205 203 199 195 196 197 194 194 191 188 187 182 181 173 168 169 159 143 134 127 113 109 87 92 93 91 86 79 71
218 225 222 230 190 219 216 245 250 209 221 236 245 242 236 237 235 228 221 215 209 204 201 198 196 195 191 190 189 185 183 184 183 177 171 172 170 151 149 138 128 124 106 117 118 114 103 94 79
250 238 235 226 214 209 234 250 255 249 253 245 249 244 239 238 238 228 221 213 208 207 201 197 193 193 186 183 178 182 183 183 182 182 181 177 176 164 156 153 140 132 120 134 148 142 128 121 101
228 235 239 262 183 210 253 262 258 256 250 248 240 242 240 240 228 220 209 204 206 206 204 198 194 191 189 187 185 183 177 185 185 183 184 182 178 172 163 161 155 149 133 131 164 179 177 164 210
222 226 228 240 155 228 281 270 262 250 243 247 239 244 245 239 235 225 206 203 201 204 203 199 195 191 190 186 180 174 167 167 174 183 184 186 181 180 170 170 164 156 146 140 150 178 195 175 77
227 224 241 242 249 251 206 279 266 240 246 238 238 232 237 235 231 230 212 202 202 203 199 198 195 191 189 184 185 183 180 176 189 185 184 183 184 183 179 177 169 165 151 140 141 144 171 172 122
235 203 209 227 245 274 245 265 265 238 241 245 233 231 231 232 229 222 214 205 201 196 195 195 193 191 187 189 189 185 186 184 177 178 179 181 184 184 185 180 174 170 158 148 116 105 125 145 120
172 150 146 195 225 247 236 224 262 243 232 248 245 239 236 234 227 225 216 211 198 193 191 190 190 189 186 187 189 188 185 175 171 177 178 179 183 185 186 181 179 171 164 154 140 126 120 114 118
193 179 169 186 190 239 183 217 241 255 236 246 259 250 238 233 213 214 203 194 192 187 188 186 188 187 187 187 187 189 188 184 182 179 179 178 181 184 185 182 179 173 170 162 151 135 140 129 120
202 184 184 192 202 231 132 233 248 234 248 254 243 251 232 203 191 196 203 199 191 185 184 183 186 183 181 184 187 186 188 187 185 187 186 184 184 185 182 180 176 171 166 167 164 155 150 143 143
201 209 210 114 60 219 216 244 276 260 261 231 240 230 232 233 215 203 190 193 189 186 185 183 183 181 181 183 182 184 187 187 186 188 189 188 183 180 178 177 173 169 165 162 160 161 155 142 145
191 203 195 215 206 222 225 243 242 226 245 245 244 223 235 232 214 183 182 183 184 184 183 182 185 183 179 179 181 183 186 192 191 187 185 187 182 181 177 175 172 167 166 163 160 159 161 150 145
196 196 208 215 228 222 250 238 213 233 255 274 271 297 242 220 190 164 165 169 172 172 174 177 181 176 175 177 178 181 186 189 189 187 186 184 180 179 177 175 172 169 166 166 161 156 159 159 153
204 203 204 205 205 229 301 250 346 308 297 268 291 335 54 144 141 136 148 155 162 166 169 173 175 173 174 174 176 180 181 187 187 184 183 182 180 181 178 175 173 172 170 168 165 161 161 163 160